Location: Franzen
(48.6167°N, 15.3833°E)
Time: 09:47:56
(UTC+00:00)

A-11 Canister half - Pass Details

Date: 03 August 2021
Orbit: 1515 x 1685 km, 47.2° (Epoch: 21 September)

Event Time Altitude Azimuth Distance (km) Brightness Sun altitude
Rises 20:13:50 0° 285° (WNW) 4,878 12.6 -14.0°
Reaches altitude 10° 20:16:59 10° 283° (WNW) 3,907 12.0 -14.3°
Maximum altitude 20:26:51 64° 205° (SSW) 1,834 9.3 -15.4°
Enters shadow 20:34:20 20° 131° (SE) 3,210 10.1 -16.1°
Drops below altitude 10° 20:36:49 10° 127° (SE) 3,942 - -16.4°
Sets 20:40:01 0° 125° (SE) 4,923 - -16.7°
